User: anonymous   Login
Location: ??????
(41.3794°N, 22.5014°E)
Time: 10:25:48
(UTC+00:00)
Language:

DEBRIS - Orbit

View from above orbital plane
View from above orbital plane
View from above satellite
View from above satellite

Ground track
Ground track

The orbit data is extracted from the following two-line orbital elements,

1 28395U 04031C   21063.51856644  .00003056  00000-0  57131-3 0  9990
2 28395  49.4200 166.8091 5272813 205.8716 113.9536  5.16564202303102
Epoch (UTC): 04 March 2021 12:26:44
Eccentricity: 0.5272813
inclination: 49.4200°
perigee height: 304 km
apogee height: 15211 km
right ascension of ascending node: 166.8091°
argument of perigee: 205.8716°
revolutions per day: 5.16564202
mean anomaly at epoch: 113.9536°
orbit number at epoch: 30310

The dashed part of the orbit path shows where the satellite is in the earth's shadow,  

DLR